Rexburg, ID

1:06 AM MDT on September 25, 2017 (GMT -0600)
Rexburg-Madison County

Weather History for KRXE - December, 2012

Change the Weather History Date:

Friday, December 21, 2012

  Actual Average Record
Temperature  
Mean Temperature 23 °F 20 °F  
Max Temperature 37 °F 28 °F 42 °F (2014)
Min Temperature 8 °F 12 °F -3 °F (2000)
Degree Days  
Heating Degree Days 42 45  
Month to date heating degree days 735 920  
Since 1 July heating degree days 2422 2932  
Cooling Degree Days 0 0  
Month to date cooling degree days 0 0  
Year to date cooling degree days 419 208  
Moisture  
Dew Point 11 °F    
Average Humidity 61    
Maximum Humidity 84    
Minimum Humidity 37    
Precipitation  
Precipitation 0.00 in 0.04 in 0.18 in (1984)
Month to date precipitation 0.79 0.62  
Year to date precipitation 9.84 12.65  
Sea Level Pressure  
Sea Level Pressure 30.23 in    
Wind  
Wind Speed 4 mph (NE)    
Max Wind Speed 9 mph    
Max Gust Speed 12 mph    
Visibility 10 miles    
Events      
T = Trace of Precipitation, MM = Missing Value Source: NWS Daily Summary

Daily Weather History Graph

Daily Weather History Graph

Search for Another Location

Airport or City:

Trip Planner

Search our weather history database for the weather conditions in past years. The results will help you decide how hot, cold, wet, or windy it might be!

Date:

Astronomy

Dec. 21, 2012 Rise Set
Actual Time 7:58 AM MST 4:52 PM MST
Civil Twilight 7:25 AM MST 5:25 PM MST
Nautical Twilight 6:49 AM MST 6:02 PM MST
Astronomical Twilight 6:13 AM MST 6:37 PM MST
Moon 12:49 PM MST (12/21) 1:40 AM MST (12/21)
Length of Visible Light 10h 00m
Length of Day
8h 54m
Waxing Gibbous, 65% of the Moon is Illuminated
Dec 21
Waxing Gibbous
Dec 28
Full
Jan 4
Last Quarter
Jan 11
New
Jan 18
First Quarter

Hourly Weather History & Observations

Time (MST) Temp. Windchill Dew Point Humidity Pressure Visibility Wind Dir Wind Speed Gust Speed Precip Events Conditions
12:53 AM 9.0 °F -2.2 °F 3.9 °F 80% 30.34 in 10.0 mi NE 6.9 mph - N/A   Clear
1:53 AM 9.0 °F 0.6 °F 3.9 °F 80% 30.33 in 10.0 mi NE 4.6 mph - N/A   Clear
2:53 AM 9.0 °F -0.9 °F 3.9 °F 80% 30.32 in 10.0 mi ENE 5.8 mph - N/A   Clear
3:53 AM 9.0 °F -0.9 °F 3.9 °F 80% 30.30 in 10.0 mi NE 5.8 mph - N/A   Clear
4:53 AM 9.0 °F -0.9 °F 3.0 °F 77% 30.31 in 10.0 mi ENE 5.8 mph - N/A   Clear
5:53 AM 9.0 °F -3.2 °F 3.0 °F 77% 30.31 in 10.0 mi ENE 8.1 mph - N/A   Clear
6:53 AM 9.0 °F -2.2 °F 3.0 °F 77% 30.32 in 10.0 mi ENE 6.9 mph - N/A   Clear
7:53 AM 8.1 °F -2.0 °F 1.9 °F 76% 30.32 in 10.0 mi NNE 5.8 mph - N/A   Clear
8:53 AM 10.9 °F 2.9 °F 5.0 °F 77% 30.32 in 10.0 mi ENE 4.6 mph - N/A   Clear
9:53 AM 18.0 °F 12.7 °F 9.0 °F 68% 30.30 in 10.0 mi NE 3.5 mph - N/A   Clear
10:53 AM 25.0 °F 17.1 °F 12.0 °F 58% 30.27 in 10.0 mi NE 6.9 mph - N/A   Clear
11:53 AM 30.0 °F 24.1 °F 14.0 °F 51% 30.21 in 10.0 mi ENE 5.8 mph - N/A   Clear
12:53 PM 33.1 °F 28.7 °F 15.1 °F 48% 30.18 in 10.0 mi NE 4.6 mph - N/A   Clear
1:53 PM 35.1 °F 31.0 °F 15.1 °F 44% 30.15 in 10.0 mi North 4.6 mph - N/A   Clear
2:53 PM 37.0 °F 33.3 °F 14.0 °F 39% 30.13 in 10.0 mi North 4.6 mph - N/A   Clear
3:53 PM 36.0 °F - 14.0 °F 41% 30.13 in 10.0 mi Calm Calm - N/A   Clear
4:53 PM 30.9 °F - 14.0 °F 50% 30.15 in 10.0 mi Calm Calm - N/A   Clear
5:53 PM 28.0 °F 24.2 °F 17.1 °F 63% 30.15 in 10.0 mi East 3.5 mph - N/A   Clear
6:53 PM 26.1 °F - 17.1 °F 69% 30.16 in 10.0 mi Calm Calm - N/A   Clear
7:53 PM 25.0 °F 20.7 °F 18.0 °F 75% 30.18 in 10.0 mi NNW 3.5 mph - N/A   Clear
8:53 PM 23.0 °F - 16.0 °F 74% 30.19 in 10.0 mi Calm Calm - N/A   Clear
9:53 PM 23.0 °F - 17.1 °F 78% 30.16 in 10.0 mi Calm Calm - N/A   Clear
10:53 PM 19.9 °F 11.1 °F 15.1 °F 81% 30.14 in 10.0 mi ENE 6.9 mph - N/A   Clear
11:53 PM 19.0 °F 12.3 °F 14.0 °F 81% 30.15 in 10.0 mi NNE 4.6 mph - N/A   Clear